Date String (YYYY-MM-DD hh:mm:ss) UTC,Instrument flags,Ambient pressure (hPa),Sample flow (lpm),Bypass flow (lpm),Sample temperature (°C),Ambient temperature (°C),ASC tube jacket temperature (°C),LED temperature (°C),Box temperature (°C),Sample RH (%),Span deviation,Mass concentration (μg/m³),Mass concentration (μg/m³),Mass concentration (μg/m³)
DateTimeUTC,F1_M11,P_M11,Q1_M11,Q2_M11,T1_M11,T2_M11,T3_M11,T4_M11,T5_M11,U1_M11,ZSPAN_M11,X0_M11,X2_M11,X1_M11
2022-11-19 07:00:00,,0829.8,5.01,0.00,22.3,21.8,00.0,31.1,24.2,08.2,0000.0,0011.77,0008.66,0008.06
2022-11-19 07:01:00,,0829.8,5.01,0.00,22.2,21.3,00.0,31.1,24.1,08.2,0000.0,0011.88,0008.73,0008.12
2022-11-19 07:02:00,,0829.8,4.98,0.00,22.2,21.0,00.0,31.1,24.0,08.2,0000.0,0012.51,0008.86,0008.21
2022-11-19 07:03:00,,0829.8,5.00,0.00,22.2,20.8,00.0,31.1,23.9,08.3,0000.0,0012.68,0008.94,0008.30
2022-11-19 07:04:00,,0829.8,5.00,0.00,22.1,20.6,00.0,31.1,23.8,08.3,0000.6,0012.72,0009.02,0008.37
2022-11-19 07:05:00,,0829.8,5.02,0.00,22.1,20.5,00.0,31.1,23.8,08.3,0000.9,0012.74,0009.07,0008.42
2022-11-19 07:06:00,,0829.8,5.00,0.00,22.0,20.4,00.0,31.1,23.7,08.3,0001.2,0012.68,0009.08,0008.46
2022-11-19 07:07:00,,0829.8,4.99,0.00,22.0,20.9,00.0,31.0,23.8,08.3,0001.9,0012.59,0009.06,0008.47
2022-11-19 07:08:00,,0829.9,4.99,0.00,22.1,21.9,00.0,31.0,24.0,08.3,0001.8,0012.64,0009.08,0008.49
2022-11-19 07:09:00,,0829.8,5.01,0.00,22.2,22.6,00.0,31.0,24.2,08.2,0002.0,0012.72,0009.08,0008.49
2022-11-19 07:10:00,,0829.8,5.00,0.00,22.3,22.4,00.0,31.0,24.3,08.2,0000.8,0012.74,0009.12,0008.51
2022-11-19 07:11:00,,0829.8,5.00,0.00,22.3,22.0,00.0,31.1,24.2,08.2,0000.0,0012.93,0009.15,0008.54
2022-11-19 07:12:00,,0829.8,5.02,0.00,22.3,21.5,00.0,31.1,24.1,08.2,0000.0,0013.18,0009.21,0008.59
2022-11-19 07:13:00,,0829.8,5.01,0.00,22.2,21.2,00.0,31.1,24.0,08.2,0001.4,0012.90,0009.19,0008.58
2022-11-19 07:14:00,,0829.7,5.00,0.00,22.2,21.0,00.0,31.1,24.0,08.2,0000.0,0012.74,0009.16,0008.56
2022-11-19 07:15:00,,0829.8,4.98,0.00,22.2,20.8,00.0,31.1,23.9,08.1,0000.0,0012.81,0009.17,0008.53
2022-11-19 07:16:00,,0829.8,5.02,0.00,22.1,20.6,00.0,31.1,23.8,08.2,0000.0,0012.85,0009.19,0008.54
2022-11-19 07:17:00,,0829.8,5.00,0.00,22.1,20.4,00.0,31.1,23.8,08.2,0000.0,0013.71,0009.25,0008.59
2022-11-19 07:18:00,,0829.8,4.98,0.00,22.0,20.4,00.0,31.1,23.7,08.2,0000.0,0014.18,0009.31,0008.62
2022-11-19 07:19:00,,0829.8,5.01,0.00,22.1,21.2,00.0,31.0,23.9,08.2,0000.0,0014.23,0009.36,0008.67
2022-11-19 07:20:00,,0829.8,4.99,0.00,22.2,22.1,00.0,31.0,24.1,08.2,0000.0,0014.15,0009.38,0008.72
2022-11-19 07:21:00,,0829.8,4.98,0.00,22.3,22.1,00.0,31.0,24.2,08.2,0000.0,0014.06,0009.43,0008.81
2022-11-19 07:22:00,,0829.8,5.01,0.00,22.3,21.8,00.0,31.1,24.2,08.2,-000.6,0013.97,0009.48,0008.86
2022-11-19 07:23:00,,0829.8,5.01,0.00,22.2,21.4,00.0,31.1,24.1,08.2,-000.4,0013.93,0009.52,0008.91
2022-11-19 07:24:00,,0829.8,4.99,0.00,22.2,21.1,00.0,31.1,24.0,08.2,0000.0,0014.01,0009.63,0009.03
2022-11-19 07:25:00,,0829.8,5.01,0.00,22.2,20.9,00.0,31.1,23.9,08.3,0000.0,0014.16,0009.75,0009.15
2022-11-19 07:26:00,,0829.8,5.00,0.00,22.1,20.7,00.0,31.1,23.9,08.3,0000.5,0014.53,0009.83,0009.27
2022-11-19 07:27:00,,0829.8,5.00,0.00,22.1,20.5,00.0,31.1,23.8,08.3,0001.0,0014.71,0009.91,0009.36
2022-11-19 07:28:00,,0829.8,4.99,0.00,22.1,20.7,00.0,31.0,23.8,08.3,0000.6,0013.91,0009.91,0009.37
2022-11-19 07:29:00,,0829.8,5.02,0.00,22.1,21.6,00.0,31.0,24.0,08.2,0001.7,0014.00,0009.92,0009.38
2022-11-19 07:30:00,,0829.8,5.00,0.00,22.2,22.2,00.0,31.0,24.2,08.2,0001.8,0014.08,0009.84,0009.33
2022-11-19 07:31:00,,0829.8,4.99,0.00,22.2,21.9,00.0,31.1,24.1,08.1,0002.0,0013.96,0009.70,0009.19
2022-11-19 07:32:00,,0829.7,5.01,0.00,22.2,21.4,00.0,31.1,24.1,08.1,0002.3,0013.79,0009.53,0008.98
2022-11-19 07:33:00,,0829.8,5.01,0.00,22.2,21.0,00.0,31.1,23.9,08.1,0000.1,0013.76,0009.33,0008.81
2022-11-19 07:34:00,,0829.8,4.99,0.00,22.1,20.8,00.0,31.1,23.8,08.1,0000.3,0013.47,0009.13,0008.63
2022-11-19 07:35:00,,0829.7,4.99,0.00,22.1,20.5,00.0,31.1,23.8,08.2,0001.5,0013.25,0008.96,0008.44
2022-11-19 07:36:00,,0829.7,5.01,0.00,22.0,20.3,00.0,31.1,23.7,08.2,0000.6,0012.95,0008.76,0008.25
2022-11-19 07:37:00,,0829.7,4.99,0.00,22.0,20.5,00.0,31.0,23.7,08.2,0000.0,0012.37,0008.60,0008.09
2022-11-19 07:38:00,,0829.7,5.01,0.00,22.1,21.4,00.0,31.0,23.8,08.2,0000.0,0012.08,0008.42,0007.93
2022-11-19 07:39:00,,0829.7,4.99,0.00,22.2,22.3,00.0,30.9,24.1,08.2,0000.0,0012.04,0008.28,0007.78
2022-11-19 07:40:00,,0829.7,5.00,0.00,22.2,22.4,00.0,31.0,24.2,08.1,0000.0,0011.48,0008.12,0007.63
2022-11-19 07:41:00,,0829.8,5.01,0.00,22.2,21.8,00.0,31.0,24.1,08.1,0000.0,0011.33,0008.04,0007.55
2022-11-19 07:42:00,,0829.8,4.99,0.00,22.2,21.4,00.0,31.1,24.0,08.1,0000.0,0011.33,0008.00,0007.50
2022-11-19 07:43:00,,0829.9,5.01,0.00,22.2,21.0,00.0,31.1,23.9,08.2,0000.0,0011.34,0007.98,0007.47
2022-11-19 07:44:00,,0829.7,5.00,0.00,22.1,20.7,00.0,31.1,23.8,08.2,0000.0,0011.15,0007.97,0007.44
2022-11-19 07:45:00,,0829.7,5.00,0.00,22.1,20.5,00.0,31.1,23.7,08.3,0000.0,0011.09,0007.96,0007.40
2022-11-19 07:46:00,,0829.6,5.00,0.00,22.0,20.3,00.0,31.1,23.6,08.3,0000.2,0011.07,0007.90,0007.34
2022-11-19 07:47:00,,0829.7,5.00,0.00,21.9,20.4,00.0,31.0,23.6,08.3,0000.0,0011.02,0007.82,0007.27
2022-11-19 07:48:00,,0829.7,5.01,0.00,22.0,21.3,00.0,30.9,23.8,08.3,0000.8,0011.01,0007.70,0007.16
2022-11-19 07:49:00,,0829.6,4.99,0.00,22.1,22.2,00.0,30.9,24.0,08.2,0000.6,0010.80,0007.54,0007.03
2022-11-19 07:50:00,,0829.6,4.99,0.00,22.2,22.4,00.0,31.0,24.2,08.2,0000.1,0010.55,0007.44,0006.94
2022-11-19 07:51:00,,0829.6,5.00,0.00,22.2,21.9,00.0,31.0,24.1,08.2,-000.1,0010.50,0007.40,0006.89
2022-11-19 07:52:00,,0829.6,5.00,0.00,22.2,21.3,00.0,31.0,24.0,08.2,-000.7,0010.45,0007.32,0006.83
2022-11-19 07:53:00,,0829.6,5.00,0.00,22.1,21.0,00.0,31.1,23.9,08.2,-000.8,0010.31,0007.23,0006.77
2022-11-19 07:54:00,,0829.6,5.00,0.00,22.1,20.7,00.0,31.1,23.8,08.2,-000.7,0010.13,0007.11,0006.67
2022-11-19 07:55:00,,0829.6,4.99,0.00,22.0,20.5,00.0,31.0,23.7,08.2,-000.2,0009.99,0006.98,0006.55
2022-11-19 07:56:00,,0829.9,5.02,0.00,22.0,20.3,00.0,31.0,23.6,08.2,0000.0,0010.21,0006.83,0006.41
2022-11-19 07:57:00,,0829.9,5.01,0.00,22.0,20.7,00.0,31.0,23.6,08.3,0000.0,0010.15,0006.67,0006.29
2022-11-19 07:58:00,,0829.8,4.99,0.00,22.0,21.7,00.0,30.9,23.9,08.2,0000.0,0009.92,0006.53,0006.17
2022-11-19 07:59:00,,0829.6,4.99,0.00,22.2,22.4,00.0,30.9,24.1,08.2,0000.0,0009.73,0006.43,0006.07
